Time,TemperatureF,DewpointF,PressureIn,WindDirection,WindDirectionDegrees,WindSpeedMPH,WindSpeedGustMPH,Humidity,HourlyPrecipIn,Conditions,Clouds,dailyrainin,SoftwareType,DateUTC
2013-02-15 00:05:00,34.5,30.0,29.93,West,269,10.0,-999.0,82,-99.99,,,0.00,weatherlink.com 1.10,2013-02-15 05:05:00,
2013-02-15 00:20:00,34.7,29.0,29.93,West,271,9.0,-999.0,79,-99.99,,,0.00,weatherlink.com 1.10,2013-02-15 05:20:00,
2013-02-15 00:35:00,34.4,28.0,29.93,West,279,11.0,-999.0,78,-99.99,,,0.00,weatherlink.com 1.10,2013-02-15 05:35:00,
2013-02-15 00:50:00,34.3,27.0,29.93,West,278,12.0,-999.0,76,-99.99,,,0.00,weatherlink.com 1.10,2013-02-15 05:50:00,
2013-02-15 01:05:00,34.0,27.0,29.94,West,266,10.0,-999.0,76,-99.99,,,0.00,weatherlink.com 1.10,2013-02-15 06:05:00,
2013-02-15 01:20:00,33.5,27.0,29.94,WSW,257,4.0,-999.0,78,-99.99,,,0.00,weatherlink.com 1.10,2013-02-15 06:20:00,
2013-02-15 01:35:00,32.7,27.0,29.95,WSW,252,5.0,-999.0,78,-99.99,,,0.00,weatherlink.com 1.10,2013-02-15 06:35:00,
2013-02-15 01:50:00,32.5,26.0,29.95,WSW,253,4.0,-999.0,77,-99.99,,,0.00,weatherlink.com 1.10,2013-02-15 06:50:00,
2013-02-15 02:06:00,32.3,26.0,29.95,WSW,253,5.0,-999.0,77,-99.99,,,0.00,weatherlink.com 1.10,2013-02-15 07:06:00,
2013-02-15 02:21:00,32.0,26.0,29.95,WSW,253,3.0,-999.0,77,-99.99,,,0.00,weatherlink.com 1.10,2013-02-15 07:21:00,
2013-02-15 02:36:00,32.0,26.0,29.95,WSW,253,5.0,-999.0,77,-99.99,,,0.00,weatherlink.com 1.10,2013-02-15 07:36:00,
2013-02-15 02:51:00,31.9,25.0,29.95,WSW,253,4.0,-999.0,77,-99.99,,,0.00,weatherlink.com 1.10,2013-02-15 07:51:00,
2013-02-15 03:06:00,31.6,25.0,29.96,WSW,253,4.0,-999.0,78,-99.99,,,0.00,weatherlink.com 1.10,2013-02-15 08:06:00,
2013-02-15 03:21:00,31.2,25.0,29.96,WSW,252,2.0,-999.0,79,-99.99,,,0.00,weatherlink.com 1.10,2013-02-15 08:21:00,
2013-02-15 03:36:00,31.0,26.0,29.96,WSW,245,4.0,-999.0,80,-99.99,,,0.00,weatherlink.com 1.10,2013-02-15 08:36:00,
2013-02-15 03:51:00,30.7,26.0,29.96,WSW,245,4.0,-999.0,81,-99.99,,,0.00,weatherlink.com 1.10,2013-02-15 08:51:00,
2013-02-15 04:06:00,30.6,25.0,29.96,WSW,245,3.0,-999.0,81,-99.99,,,0.00,weatherlink.com 1.10,2013-02-15 09:06:00,
2013-02-15 04:21:00,30.5,26.0,29.97,WSW,245,6.0,-999.0,82,-99.99,,,0.00,weatherlink.com 1.10,2013-02-15 09:21:00,
2013-02-15 04:36:00,30.5,26.0,29.97,WSW,245,3.0,-999.0,82,-99.99,,,0.00,weatherlink.com 1.10,2013-02-15 09:36:00,
2013-02-15 04:52:00,30.5,26.0,29.98,WSW,244,3.0,-999.0,83,-99.99,,,0.00,weatherlink.com 1.10,2013-02-15 09:52:00,
2013-02-15 05:07:00,30.6,26.0,29.98,WSW,243,3.0,-999.0,83,-99.99,,,0.00,weatherlink.com 1.10,2013-02-15 10:07:00,
2013-02-15 05:22:00,30.6,26.0,29.98,WSW,243,4.0,-999.0,83,-99.99,,,0.00,weatherlink.com 1.10,2013-02-15 10:22:00,
2013-02-15 05:37:00,30.4,26.0,29.98,WSW,243,4.0,-999.0,83,-99.99,,,0.00,weatherlink.com 1.10,2013-02-15 10:37:00,
2013-02-15 05:52:00,30.2,26.0,29.99,WSW,243,3.0,-999.0,83,-99.99,,,0.00,weatherlink.com 1.10,2013-02-15 10:52:00,
2013-02-15 06:07:00,30.1,26.0,29.99,WSW,243,2.0,-999.0,83,-99.99,,,0.00,weatherlink.com 1.10,2013-02-15 11:07:00,
2013-02-15 06:22:00,29.9,26.0,30.00,WSW,243,2.0,-999.0,84,-99.99,,,0.00,weatherlink.com 1.10,2013-02-15 11:22:00,
2013-02-15 06:37:00,29.8,26.0,30.00,WSW,243,5.0,-999.0,84,-99.99,,,0.00,weatherlink.com 1.10,2013-02-15 11:37:00,
2013-02-15 06:52:00,29.4,26.0,30.00,WSW,243,3.0,-999.0,85,-99.99,,,0.00,weatherlink.com 1.10,2013-02-15 11:52:00,
2013-02-15 07:08:00,29.5,26.0,30.01,WSW,243,2.0,-999.0,85,-99.99,,,0.00,weatherlink.com 1.10,2013-02-15 12:08:00,
2013-02-15 07:22:00,29.4,26.0,30.01,WSW,243,2.0,-999.0,85,-99.99,,,0.00,weatherlink.com 1.10,2013-02-15 12:22:00,
2013-02-15 07:38:00,29.6,26.0,30.02,WSW,243,5.0,-999.0,85,-99.99,,,0.00,weatherlink.com 1.10,2013-02-15 12:38:00,
2013-02-15 07:53:00,30.0,26.0,30.03,WSW,243,3.0,-999.0,85,-99.99,,,0.00,weatherlink.com 1.10,2013-02-15 12:53:00,
2013-02-15 08:08:00,30.0,26.0,30.03,WSW,243,1.0,-999.0,86,-99.99,,,0.00,weatherlink.com 1.10,2013-02-15 13:08:00,
2013-02-15 08:23:00,30.1,26.0,30.04,WSW,243,2.0,-999.0,86,-99.99,,,0.00,weatherlink.com 1.10,2013-02-15 13:23:00,
2013-02-15 08:38:00,30.5,27.0,30.05,WSW,243,3.0,-999.0,87,-99.99,,,0.00,weatherlink.com 1.10,2013-02-15 13:38:00,
2013-02-15 08:53:00,30.9,27.0,30.05,WSW,243,3.0,-999.0,86,-99.99,,,0.00,weatherlink.com 1.10,2013-02-15 13:53:00,
2013-02-15 09:09:00,31.2,27.0,30.06,WSW,243,2.0,-999.0,85,-99.99,,,0.00,weatherlink.com 1.10,2013-02-15 14:09:00,
2013-02-15 09:24:00,31.5,27.0,30.06,WSW,244,3.0,-999.0,83,-99.99,,,0.00,weatherlink.com 1.10,2013-02-15 14:24:00,
2013-02-15 09:38:00,31.7,27.0,30.06,WSW,244,5.0,-999.0,83,-99.99,,,0.00,weatherlink.com 1.10,2013-02-15 14:38:00,
2013-02-15 09:54:00,31.8,27.0,30.07,West,263,4.0,-999.0,82,-99.99,,,0.00,weatherlink.com 1.10,2013-02-15 14:54:00,
2013-02-15 10:09:00,31.7,27.0,30.07,West,268,6.0,-999.0,81,-99.99,,,0.00,weatherlink.com 1.10,2013-02-15 15:09:00,
2013-02-15 10:24:00,31.7,27.0,30.07,West,273,7.0,-999.0,82,-99.99,,,0.00,weatherlink.com 1.10,2013-02-15 15:24:00,
2013-02-15 10:39:00,31.4,27.0,30.07,WNW,286,7.0,-999.0,84,-99.99,,,0.00,weatherlink.com 1.10,2013-02-15 15:39:00,
2013-02-15 10:54:00,31.2,27.0,30.07,WNW,286,4.0,-999.0,85,-99.99,,,0.00,weatherlink.com 1.10,2013-02-15 15:54:00,
2013-02-15 11:09:00,30.8,27.0,30.08,WNW,299,6.0,-999.0,85,-99.99,,,0.00,weatherlink.com 1.10,2013-02-15 16:09:00,
2013-02-15 11:24:00,30.7,26.0,30.08,NW,313,7.0,-999.0,82,-99.99,,,0.00,weatherlink.com 1.10,2013-02-15 16:24:00,
2013-02-15 11:39:00,30.9,25.0,30.07,North,360,8.0,-999.0,78,-99.99,,,0.00,weatherlink.com 1.10,2013-02-15 16:39:00,
2013-02-15 11:54:00,30.5,25.0,30.08,NW,326,7.0,-999.0,80,-99.99,,,0.00,weatherlink.com 1.10,2013-02-15 16:54:00,
2013-02-15 12:09:00,30.2,25.0,30.08,NNW,339,6.0,-999.0,82,-99.99,,,0.00,weatherlink.com 1.10,2013-02-15 17:09:00,
2013-02-15 12:24:00,30.3,25.0,30.07,NW,323,8.0,-999.0,82,-99.99,,,0.00,weatherlink.com 1.10,2013-02-15 17:24:00,
2013-02-15 12:39:00,30.3,26.0,30.07,NW,306,7.0,-999.0,83,-99.99,,,0.00,weatherlink.com 1.10,2013-02-15 17:39:00,
2013-02-15 12:54:00,30.5,26.0,30.07,NW,315,2.0,-999.0,84,-99.99,,,0.00,weatherlink.com 1.10,2013-02-15 17:54:00,
2013-02-15 13:10:00,30.5,26.0,30.07,NNW,331,6.0,-999.0,83,-99.99,,,0.00,weatherlink.com 1.10,2013-02-15 18:10:00,
2013-02-15 13:25:00,30.5,25.0,30.07,NW,315,9.0,-999.0,81,-99.99,,,0.00,weatherlink.com 1.10,2013-02-15 18:25:00,
2013-02-15 13:40:00,30.4,26.0,30.07,NNW,329,2.0,-999.0,83,-99.99,,,0.00,weatherlink.com 1.10,2013-02-15 18:40:00,
2013-02-15 13:55:00,30.6,25.0,30.07,NW,320,6.0,-999.0,81,-99.99,,,0.00,weatherlink.com 1.10,2013-02-15 18:55:00,
2013-02-15 14:10:00,30.3,25.0,30.07,NW,309,9.0,-999.0,79,-99.99,,,0.00,weatherlink.com 1.10,2013-02-15 19:10:00,
2013-02-15 14:25:00,30.0,25.0,30.07,NW,307,8.0,-999.0,81,-99.99,,,0.00,weatherlink.com 1.10,2013-02-15 19:25:00,
2013-02-15 14:40:00,30.5,25.0,30.08,WNW,294,7.0,-999.0,81,-99.99,,,0.00,weatherlink.com 1.10,2013-02-15 19:40:00,
2013-02-15 14:55:00,30.8,24.0,30.08,NNW,341,12.0,-999.0,75,-99.99,,,0.00,weatherlink.com 1.10,2013-02-15 19:55:00,
2013-02-15 15:10:00,31.4,23.0,30.08,NW,311,11.0,-999.0,71,-99.99,,,0.00,weatherlink.com 1.10,2013-02-15 20:10:00,
2013-02-15 15:25:00,31.8,22.0,30.08,NW,317,10.0,-999.0,67,-99.99,,,0.00,weatherlink.com 1.10,2013-02-15 20:25:00,
2013-02-15 15:41:00,32.0,22.0,30.08,WNW,296,12.0,-999.0,66,-99.99,,,0.00,weatherlink.com 1.10,2013-02-15 20:41:00,
2013-02-15 15:56:00,32.2,21.0,30.08,NW,314,7.0,-999.0,64,-99.99,,,0.00,weatherlink.com 1.10,2013-02-15 20:56:00,
2013-02-15 16:11:00,32.3,21.0,30.08,West,276,11.0,-999.0,63,-99.99,,,0.00,weatherlink.com 1.10,2013-02-15 21:11:00,
2013-02-15 16:26:00,32.1,20.0,30.09,WNW,292,12.0,-999.0,62,-99.99,,,0.00,weatherlink.com 1.10,2013-02-15 21:26:00,
2013-02-15 16:41:00,31.8,21.0,30.10,WNW,291,7.0,-999.0,64,-99.99,,,0.00,weatherlink.com 1.10,2013-02-15 21:41:00,
2013-02-15 16:56:00,31.7,21.0,30.10,NW,313,12.0,-999.0,64,-99.99,,,0.00,weatherlink.com 1.10,2013-02-15 21:56:00,
2013-02-15 17:26:00,31.5,22.0,30.10,NW,304,6.0,-999.0,67,-99.99,,,0.00,weatherlink.com 1.10,2013-02-15 22:26:00,
2013-02-15 17:41:00,31.1,21.0,30.11,WNW,299,11.0,-999.0,67,-99.99,,,0.00,weatherlink.com 1.10,2013-02-15 22:41:00,
2013-02-15 17:57:00,30.9,23.0,30.11,WNW,286,11.0,-999.0,72,-99.99,,,0.00,weatherlink.com 1.10,2013-02-15 22:57:00,
2013-02-15 18:11:00,30.8,22.0,30.11,WNW,303,8.0,-999.0,70,-99.99,,,0.00,weatherlink.com 1.10,2013-02-15 23:11:00,
2013-02-15 18:26:00,30.3,22.0,30.12,WNW,296,8.0,-999.0,71,-99.99,,,0.00,weatherlink.com 1.10,2013-02-15 23:26:00,
2013-02-15 18:42:00,30.0,21.0,30.12,West,279,12.0,-999.0,69,-99.99,,,0.00,weatherlink.com 1.10,2013-02-15 23:42:00,
2013-02-15 18:57:00,29.8,20.0,30.12,WNW,290,7.0,-999.0,68,-99.99,,,0.00,weatherlink.com 1.10,2013-02-15 23:57:00,
2013-02-15 19:12:00,29.5,20.0,30.13,WNW,287,8.0,-999.0,67,-99.99,,,0.00,weatherlink.com 1.10,2013-02-16 00:12:00,
2013-02-15 19:27:00,29.4,19.0,30.13,WNW,283,7.0,-999.0,65,-99.99,,,0.00,weatherlink.com 1.10,2013-02-16 00:27:00,
2013-02-15 19:42:00,28.9,19.0,30.13,WNW,285,11.0,-999.0,66,-99.99,,,0.00,weatherlink.com 1.10,2013-02-16 00:42:00,
2013-02-15 19:57:00,28.5,19.0,30.14,WNW,291,7.0,-999.0,68,-99.99,,,0.00,weatherlink.com 1.10,2013-02-16 00:57:00,
2013-02-15 20:12:00,28.0,19.0,30.14,WNW,292,8.0,-999.0,69,-99.99,,,0.00,weatherlink.com 1.10,2013-02-16 01:12:00,
2013-02-15 20:27:00,27.5,19.0,30.15,NW,306,8.0,-999.0,70,-99.99,,,0.00,weatherlink.com 1.10,2013-02-16 01:27:00,
2013-02-15 20:42:00,27.2,19.0,30.15,WNW,298,13.0,-999.0,70,-99.99,,,0.00,weatherlink.com 1.10,2013-02-16 01:42:00,
2013-02-15 20:57:00,27.0,18.0,30.15,NW,304,6.0,-999.0,70,-99.99,,,0.00,weatherlink.com 1.10,2013-02-16 01:57:00,
2013-02-15 21:12:00,26.7,18.0,30.15,WNW,297,6.0,-999.0,71,-99.99,,,0.00,weatherlink.com 1.10,2013-02-16 02:12:00,
2013-02-15 21:28:00,26.5,18.0,30.15,WNW,302,12.0,-999.0,71,-99.99,,,0.00,weatherlink.com 1.10,2013-02-16 02:28:00,
2013-02-15 21:43:00,26.3,18.0,30.16,WNW,297,6.0,-999.0,71,-99.99,,,0.00,weatherlink.com 1.10,2013-02-16 02:43:00,
2013-02-15 21:58:00,26.1,18.0,30.16,WNW,299,9.0,-999.0,71,-99.99,,,0.00,weatherlink.com 1.10,2013-02-16 02:58:00,
2013-02-15 22:13:00,26.0,18.0,30.16,WNW,296,7.0,-999.0,72,-99.99,,,0.00,weatherlink.com 1.10,2013-02-16 03:13:00,
2013-02-15 22:28:00,25.8,18.0,30.16,WNW,295,5.0,-999.0,71,-99.99,,,0.00,weatherlink.com 1.10,2013-02-16 03:28:00,
2013-02-15 22:43:00,25.6,17.0,30.15,WNW,296,4.0,-999.0,71,-99.99,,,0.00,weatherlink.com 1.10,2013-02-16 03:43:00,
2013-02-15 22:58:00,25.2,17.0,30.15,WNW,296,1.0,-999.0,71,-99.99,,,0.00,weatherlink.com 1.10,2013-02-16 03:58:00,
2013-02-15 23:13:00,24.9,17.0,30.15,WNW,296,2.0,-999.0,73,-99.99,,,0.00,weatherlink.com 1.10,2013-02-16 04:13:00,
2013-02-15 23:29:00,24.6,18.0,30.15,WNW,296,2.0,-999.0,75,-99.99,,,0.00,weatherlink.com 1.10,2013-02-16 04:29:00,
2013-02-15 23:43:00,24.3,18.0,30.14,WNW,296,1.0,-999.0,76,-99.99,,,0.00,weatherlink.com 1.10,2013-02-16 04:43:00,
2013-02-15 23:58:00,24.0,18.0,30.14,WNW,296,1.0,-999.0,77,-99.99,,,0.00,weatherlink.com 1.10,2013-02-16 04:58:00,